Time,TemperatureF,DewpointF,PressureIn,WindDirection,WindDirectionDegrees,WindSpeedMPH,WindSpeedGustMPH,Humidity,HourlyPrecipIn,Conditions,Clouds,dailyrainin,SoftwareType,DateUTC
2013-04-24 00:01:00,42.6,42.6,30.07,NE,48,11.8,21.6,100,0.00,,-RA,0.00,VWS V14.01,2013-04-24 04:01:00,
2013-04-24 00:05:00,42.5,42.5,30.07,NE,55,10.0,11.6,100,0.00,,-RA,0.00,VWS V14.01,2013-04-24 04:05:00,
2013-04-24 00:07:00,42.5,42.5,30.07,NNE,30,4.7,13.7,100,0.00,,-RA,0.00,VWS V14.01,2013-04-24 04:07:00,
2013-04-24 00:13:00,42.5,42.5,30.07,NNW,343,13.2,13.9,100,0.00,,-RA,0.00,VWS V14.01,2013-04-24 04:13:00,
2013-04-24 00:19:00,42.5,42.5,30.06,East,79,10.8,13.6,100,0.00,,-RA,0.00,VWS V14.01,2013-04-24 04:19:00,
2013-04-24 00:25:00,42.5,42.5,30.06,ENE,59,8.9,19.8,100,0.00,,-RA,0.00,VWS V14.01,2013-04-24 04:25:00,
2013-04-24 00:31:00,42.5,42.5,30.05,NE,41,7.3,10.5,100,0.00,,-RA,0.00,VWS V14.01,2013-04-24 04:31:00,
2013-04-24 00:37:00,42.5,42.5,30.05,NNE,20,7.8,9.8,100,0.00,,-RA,0.00,VWS V14.01,2013-04-24 04:37:00,
2013-04-24 00:41:00,42.5,42.5,30.05,ENE,75,6.5,16.0,100,0.00,,-RA,0.00,VWS V14.01,2013-04-24 04:41:00,
2013-04-24 00:47:00,42.5,42.5,30.04,East,96,8.7,14.5,100,0.00,,-RA,0.00,VWS V14.01,2013-04-24 04:47:00,
2013-04-24 00:53:00,42.4,42.4,30.04,ENE,77,8.0,16.2,100,0.00,,-RA,0.00,VWS V14.01,2013-04-24 04:53:00,
2013-04-24 00:59:00,42.4,42.4,30.03,ENE,68,10.1,11.8,100,0.00,,-RA,0.00,VWS V14.01,2013-04-24 04:59:00,
2013-04-24 01:05:00,42.3,42.3,30.02,East,97,6.5,15.7,100,0.00,,-RA,0.00,VWS V14.01,2013-04-24 05:05:00,
2013-04-24 01:11:00,42.4,42.4,30.02,North,353,8.8,10.5,100,0.00,,-RA,0.00,VWS V14.01,2013-04-24 05:11:00,
2013-04-24 01:17:00,42.4,42.4,30.01,NE,34,9.3,14.3,100,0.00,,-RA,0.00,VWS V14.01,2013-04-24 05:17:00,
2013-04-24 01:23:00,42.4,42.4,30.01,NE,49,6.8,11.8,100,0.00,,-RA,0.00,VWS V14.01,2013-04-24 05:23:00,
2013-04-24 01:29:00,42.3,42.3,30.01,NNE,24,8.2,11.8,100,0.00,,-RA,0.00,VWS V14.01,2013-04-24 05:29:00,
2013-04-24 01:35:00,42.3,42.3,30.00,North,6,10.3,11.5,100,0.00,,,0.00,VWS V14.01,2013-04-24 05:35:00,
2013-04-24 01:41:00,42.3,42.3,30.00,NNE,28,9.3,11.9,100,0.00,,,0.00,VWS V14.01,2013-04-24 05:41:00,
2013-04-24 01:47:00,42.2,42.2,30.00,East,80,8.8,12.2,100,0.00,,,0.00,VWS V14.01,2013-04-24 05:47:00,
2013-04-24 01:53:00,42.3,42.3,29.99,East,93,9.9,19.7,100,0.00,,,0.00,VWS V14.01,2013-04-24 05:53:00,
2013-04-24 01:59:00,42.3,42.3,29.98,ENE,77,9.8,13.1,100,0.00,,,0.00,VWS V14.01,2013-04-24 05:59:00,
2013-04-24 02:05:00,42.3,42.3,29.97,NNE,31,11.2,11.9,100,0.00,,,0.00,VWS V14.01,2013-04-24 06:05:00,
2013-04-24 02:11:00,42.2,42.2,29.97,ENE,60,7.0,14.9,100,0.00,,,0.00,VWS V14.01,2013-04-24 06:11:00,
2013-04-24 02:17:00,42.1,42.1,29.97,NNE,25,13.2,14.8,100,0.00,,,0.00,VWS V14.01,2013-04-24 06:17:00,
2013-04-24 02:23:00,42.2,42.2,29.96,ENE,73,10.0,12.6,100,0.00,,,0.00,VWS V14.01,2013-04-24 06:23:00,
2013-04-24 02:29:00,42.1,42.1,29.96,NNE,21,7.0,11.8,100,0.00,,,0.00,VWS V14.01,2013-04-24 06:29:00,
2013-04-24 02:35:00,42.1,42.1,29.95,NE,48,9.8,18.0,100,0.00,,,0.00,VWS V14.01,2013-04-24 06:35:00,
2013-04-24 02:41:00,42.3,42.3,29.96,North,350,8.2,11.1,100,0.00,,,0.00,VWS V14.01,2013-04-24 06:41:00,
2013-04-24 02:47:00,42.2,42.2,29.95,NE,42,9.3,14.0,100,0.00,,,0.00,VWS V14.01,2013-04-24 06:47:00,
2013-04-24 02:53:00,42.2,42.2,29.95,East,87,12.1,16.4,100,0.00,,,0.00,VWS V14.01,2013-04-24 06:53:00,
2013-04-24 02:59:00,42.2,42.2,29.95,NE,34,7.1,10.9,100,0.00,,,0.00,VWS V14.01,2013-04-24 06:59:00,
2013-04-24 03:05:00,42.3,42.3,29.95,NNE,30,9.2,12.8,100,0.00,,,0.00,VWS V14.01,2013-04-24 07:05:00,
2013-04-24 03:11:00,42.3,42.3,29.95,ENE,75,7.9,12.7,100,0.00,,,0.00,VWS V14.01,2013-04-24 07:11:00,
2013-04-24 03:17:00,42.3,42.3,29.94,NW,322,12.3,12.3,100,0.00,,,0.00,VWS V14.01,2013-04-24 07:17:00,
2013-04-24 03:23:00,42.2,42.2,29.94,NNE,25,11.0,13.1,100,0.00,,,0.00,VWS V14.01,2013-04-24 07:23:00,
2013-04-24 03:29:00,42.3,42.3,29.93,NNE,15,7.1,16.0,100,0.00,,,0.00,VWS V14.01,2013-04-24 07:29:00,
2013-04-24 03:35:00,42.2,42.2,29.93,NE,52,6.8,19.6,100,0.00,,,0.00,VWS V14.01,2013-04-24 07:35:00,
2013-04-24 03:41:00,42.2,42.2,29.93,NE,56,11.6,14.2,100,0.00,,,0.00,VWS V14.01,2013-04-24 07:41:00,
2013-04-24 03:47:00,42.3,42.3,29.93,NE,53,11.8,17.9,100,0.00,,,0.00,VWS V14.01,2013-04-24 07:47:00,
2013-04-24 03:53:00,42.3,42.3,29.92,North,8,10.4,16.5,100,0.00,,,0.00,VWS V14.01,2013-04-24 07:53:00,
2013-04-24 03:59:00,42.4,42.4,29.92,NE,38,11.3,12.6,100,0.00,,,0.00,VWS V14.01,2013-04-24 07:59:00,
2013-04-24 04:05:00,42.3,42.3,29.92,North,359,11.8,12.2,100,0.00,,OVC007,0.00,VWS V14.01,2013-04-24 08:05:00,
2013-04-24 04:11:00,42.3,42.3,29.91,NE,37,11.4,12.8,100,0.00,,OVC007,0.00,VWS V14.01,2013-04-24 08:11:00,
2013-04-24 04:17:00,42.4,42.4,29.91,NE,52,10.5,15.3,100,0.00,,OVC007,0.00,VWS V14.01,2013-04-24 08:17:00,
2013-04-24 04:23:00,42.5,42.5,29.91,NE,35,8.0,14.1,100,0.00,,OVC007,0.00,VWS V14.01,2013-04-24 08:23:00,
2013-04-24 04:29:00,42.6,42.6,29.92,NE,38,9.2,33.0,100,0.00,,OVC007,0.00,VWS V14.01,2013-04-24 08:29:00,
2013-04-24 04:35:00,42.6,42.6,29.92,ENE,63,11.3,17.0,100,0.00,,OVC007,0.00,VWS V14.01,2013-04-24 08:35:00,
2013-04-24 04:41:00,42.7,42.7,29.92,NNE,25,10.5,12.2,100,0.00,,OVC007,0.00,VWS V14.01,2013-04-24 08:41:00,
2013-04-24 04:47:00,42.7,42.7,29.92,NNW,333,10.3,18.5,100,0.00,,OVC007,0.00,VWS V14.01,2013-04-24 08:47:00,
2013-04-24 04:53:00,42.8,42.8,29.92,NE,51,12.6,19.3,100,0.00,,OVC007,0.00,VWS V14.01,2013-04-24 08:53:00,
2013-04-24 04:59:00,42.9,42.9,29.92,NNE,31,11.1,23.2,100,0.00,,OVC007,0.00,VWS V14.01,2013-04-24 08:59:00,
2013-04-24 05:05:00,42.8,42.8,29.92,NNE,22,13.4,19.1,100,0.00,,,0.00,VWS V14.01,2013-04-24 09:05:00,
2013-04-24 05:11:00,42.7,42.7,29.92,NE,56,8.3,20.3,100,0.00,,,0.00,VWS V14.01,2013-04-24 09:11:00,
2013-04-24 05:17:00,42.6,42.6,29.92,NE,55,11.1,22.2,100,0.00,,,0.00,VWS V14.01,2013-04-24 09:17:00,
2013-04-24 05:23:00,42.6,42.6,29.92,NNE,17,9.9,19.3,100,0.00,,,0.00,VWS V14.01,2013-04-24 09:23:00,
2013-04-24 05:29:00,42.6,42.6,29.92,North,359,11.8,19.1,100,0.00,,,0.00,VWS V14.01,2013-04-24 09:29:00,
2013-04-24 05:35:00,42.6,42.6,29.92,NNE,31,12.9,12.9,100,0.00,,,0.00,VWS V14.01,2013-04-24 09:35:00,
2013-04-24 05:41:00,42.6,42.6,29.92,NE,46,10.3,15.1,100,0.00,,,0.00,VWS V14.01,2013-04-24 09:41:00,
2013-04-24 05:47:00,42.7,42.7,29.91,NNE,32,12.3,21.5,100,0.00,,,0.00,VWS V14.01,2013-04-24 09:47:00,
2013-04-24 05:53:00,42.7,42.7,29.91,ENE,59,5.9,14.9,100,0.00,,,0.00,VWS V14.01,2013-04-24 09:53:00,
2013-04-24 05:59:00,42.7,42.7,29.91,NNE,13,12.1,17.5,100,0.00,,,0.00,VWS V14.01,2013-04-24 09:59:00,
2013-04-24 06:05:00,42.8,42.8,29.91,NE,42,8.6,20.5,100,0.00,,,0.00,VWS V14.01,2013-04-24 10:05:00,
2013-04-24 06:11:00,42.8,42.8,29.91,North,8,10.4,18.7,100,0.00,,,0.00,VWS V14.01,2013-04-24 10:11:00,
2013-04-24 06:17:00,42.9,42.9,29.91,NNE,32,11.7,16.3,100,0.00,,,0.00,VWS V14.01,2013-04-24 10:17:00,
2013-04-24 06:23:00,43.0,43.0,29.90,NNE,28,7.2,11.8,100,0.00,,,0.00,VWS V14.01,2013-04-24 10:23:00,
2013-04-24 06:29:00,43.2,43.2,29.90,NNE,27,8.6,15.4,100,0.00,,,0.00,VWS V14.01,2013-04-24 10:29:00,
2013-04-24 06:35:00,43.1,43.1,29.91,NNE,28,10.5,14.2,100,0.00,,,0.00,VWS V14.01,2013-04-24 10:35:00,
2013-04-24 06:41:00,43.0,43.0,29.91,NE,39,10.8,11.9,100,0.00,,,0.00,VWS V14.01,2013-04-24 10:41:00,
2013-04-24 06:47:00,43.1,43.1,29.91,NW,325,5.2,13.2,100,0.00,,,0.00,VWS V14.01,2013-04-24 10:47:00,
2013-04-24 06:53:00,43.1,43.1,29.91,NNE,18,10.8,18.7,100,0.00,,,0.00,VWS V14.01,2013-04-24 10:53:00,
2013-04-24 06:59:00,43.3,43.3,29.91,North,7,8.6,16.7,100,0.00,,,0.00,VWS V14.01,2013-04-24 10:59:00,
2013-04-24 07:05:00,43.2,43.2,29.92,NNE,13,9.5,11.6,100,0.00,,OVC007,0.00,VWS V14.01,2013-04-24 11:05:00,
2013-04-24 07:11:00,43.3,43.3,29.92,North,11,13.1,19.3,100,0.00,,OVC007,0.00,VWS V14.01,2013-04-24 11:11:00,
2013-04-24 07:17:00,43.3,43.3,29.92,North,11,6.7,10.3,100,0.00,,OVC007,0.00,VWS V14.01,2013-04-24 11:17:00,
2013-04-24 07:23:00,43.3,43.3,29.93,NNE,31,6.0,10.1,100,0.00,,OVC007,0.00,VWS V14.01,2013-04-24 11:23:00,
2013-04-24 07:29:00,43.5,43.5,29.93,NNE,28,10.2,14.7,100,0.00,,OVC007,0.00,VWS V14.01,2013-04-24 11:29:00,
2013-04-24 07:35:00,43.6,43.6,29.93,NNE,13,6.8,12.1,100,0.00,,OVC007,0.00,VWS V14.01,2013-04-24 11:35:00,
2013-04-24 07:41:00,43.7,43.7,29.93,ENE,62,5.7,14.9,100,0.00,,OVC007,0.00,VWS V14.01,2013-04-24 11:41:00,
2013-04-24 07:47:00,43.7,43.7,29.93,NNE,13,10.0,10.8,100,0.00,,,0.00,VWS V14.01,2013-04-24 11:47:00,
2013-04-24 07:53:00,43.8,43.8,29.93,NNW,339,6.5,12.3,100,0.00,,,0.00,VWS V14.01,2013-04-24 11:53:00,
2013-04-24 07:59:00,44.0,44.0,29.93,NW,316,5.5,15.3,100,0.00,,OVC009,0.00,VWS V14.01,2013-04-24 11:59:00,
2013-04-24 08:05:00,44.1,44.1,29.93,NNE,15,8.1,11.0,100,0.00,,OVC009,0.00,VWS V14.01,2013-04-24 12:05:00,
2013-04-24 08:11:00,44.1,44.1,29.93,NNE,22,9.2,15.9,100,0.00,,OVC009,0.00,VWS V14.01,2013-04-24 12:11:00,
2013-04-24 08:17:00,44.3,44.3,29.94,NNE,21,7.4,14.4,100,0.00,,OVC009,0.00,VWS V14.01,2013-04-24 12:17:00,
2013-04-24 08:23:00,44.4,44.4,29.94,NNE,25,8.8,11.5,100,0.00,,OVC011,0.00,VWS V14.01,2013-04-24 12:23:00,
2013-04-24 08:29:00,44.6,44.6,29.93,NE,52,7.2,17.0,100,0.00,,OVC011,0.00,VWS V14.01,2013-04-24 12:29:00,
2013-04-24 08:35:00,44.7,44.7,29.94,NE,35,4.7,12.5,100,0.00,,OVC011,0.00,VWS V14.01,2013-04-24 12:35:00,
2013-04-24 08:41:00,45.0,45.0,29.94,NE,35,5.6,10.5,100,0.00,,OVC011,0.00,VWS V14.01,2013-04-24 12:41:00,
2013-04-24 08:47:00,45.1,45.1,29.94,North,6,6.0,12.1,100,0.00,,OVC011,0.00,VWS V14.01,2013-04-24 12:47:00,
2013-04-24 08:53:00,45.3,45.3,29.94,North,7,4.5,8.7,100,0.00,,OVC011,0.00,VWS V14.01,2013-04-24 12:53:00,
2013-04-24 08:59:00,45.7,45.7,29.94,North,4,7.1,13.6,100,0.00,,OVC011,0.00,VWS V14.01,2013-04-24 12:59:00,
2013-04-24 09:05:00,45.6,45.6,29.94,NNE,25,7.7,10.5,100,0.00,,OVC013,0.00,VWS V14.01,2013-04-24 13:05:00,
2013-04-24 09:11:00,46.0,46.0,29.95,NNE,31,7.8,10.4,100,0.00,,OVC013,0.00,VWS V14.01,2013-04-24 13:11:00,
2013-04-24 09:17:00,46.3,46.3,29.95,North,359,4.9,8.2,100,0.00,,OVC013,0.00,VWS V14.01,2013-04-24 13:17:00,
2013-04-24 09:23:00,46.6,46.6,29.95,NW,326,10.0,10.0,100,0.00,,OVC013,0.00,VWS V14.01,2013-04-24 13:23:00,
2013-04-24 09:29:00,46.9,46.9,29.95,NNE,32,6.7,13.7,100,0.00,,OVC015,0.00,VWS V14.01,2013-04-24 13:29:00,
2013-04-24 09:35:00,47.0,47.0,29.95,North,11,7.6,8.4,100,0.00,,OVC015,0.00,VWS V14.01,2013-04-24 13:35:00,
2013-04-24 09:41:00,47.2,47.2,29.95,North,6,3.6,6.9,100,0.00,,OVC015,0.00,VWS V14.01,2013-04-24 13:41:00,
2013-04-24 09:47:00,47.4,47.4,29.95,NE,42,3.2,10.1,100,0.00,,OVC015,0.00,VWS V14.01,2013-04-24 13:47:00,
2013-04-24 09:53:00,46.8,46.8,29.95,North,356,6.8,14.2,100,0.00,,OVC015,0.00,VWS V14.01,2013-04-24 13:53:00,
2013-04-24 09:59:00,47.2,47.2,29.94,NNE,20,5.4,9.8,100,0.00,,OVC015,0.00,VWS V14.01,2013-04-24 13:59:00,
2013-04-24 10:05:00,48.3,48.3,29.94,NNE,20,8.8,10.0,100,0.00,,OVC017,0.00,VWS V14.01,2013-04-24 14:05:00,
2013-04-24 10:11:00,49.5,49.5,29.94,NNW,346,10.0,12.1,100,0.00,,OVC017,0.00,VWS V14.01,2013-04-24 14:11:00,
2013-04-24 10:17:00,51.6,51.6,29.94,North,10,5.3,9.4,100,0.00,,OVC017,0.00,VWS V14.01,2013-04-24 14:17:00,
2013-04-24 10:23:00,52.4,52.4,29.93,SSE,166,6.9,7.5,100,0.00,,OVC017,0.00,VWS V14.01,2013-04-24 14:23:00,
2013-04-24 10:29:00,52.2,52.2,29.93,ENE,70,4.7,7.7,100,0.00,,OVC017,0.00,VWS V14.01,2013-04-24 14:29:00,
2013-04-24 10:35:00,52.0,52.0,29.93,NNE,17,5.2,10.5,100,0.00,,OVC017,0.00,VWS V14.01,2013-04-24 14:35:00,
2013-04-24 10:41:00,52.6,52.5,29.93,North,349,4.4,6.6,100,0.00,,OVC017,0.00,VWS V14.01,2013-04-24 14:41:00,
2013-04-24 10:47:00,52.9,52.9,29.93,North,11,7.7,9.3,100,0.00,,OVC017,0.00,VWS V14.01,2013-04-24 14:47:00,
2013-04-24 10:53:00,53.1,53.1,29.93,NNE,13,5.8,11.2,100,0.00,,OVC017,0.00,VWS V14.01,2013-04-24 14:53:00,
2013-04-24 10:59:00,54.5,54.5,29.93,WNW,284,3.3,6.2,100,0.00,,OVC017,0.00,VWS V14.01,2013-04-24 14:59:00,
2013-04-24 11:05:00,53.1,53.1,29.93,NE,41,6.0,11.0,100,0.00,,BKN017,0.00,VWS V14.01,2013-04-24 15:05:00,
2013-04-24 11:11:00,53.2,53.2,29.93,North,354,10.3,13.5,100,0.00,,BKN017,0.00,VWS V14.01,2013-04-24 15:11:00,
2013-04-24 11:17:00,53.9,53.9,29.92,ESE,122,6.0,7.3,100,0.00,,BKN017,0.00,VWS V14.01,2013-04-24 15:17:00,
2013-04-24 11:23:00,55.6,54.9,29.92,North,6,4.2,9.1,97,0.00,,BKN017,0.00,VWS V14.01,2013-04-24 15:23:00,
2013-04-24 11:29:00,55.6,55.0,29.92,NNE,17,6.7,9.3,98,0.00,,BKN017,0.00,VWS V14.01,2013-04-24 15:29:00,
2013-04-24 11:35:00,55.9,55.1,29.92,NE,51,6.9,7.4,97,0.00,,BKN017,0.00,VWS V14.01,2013-04-24 15:35:00,
2013-04-24 11:41:00,57.3,56.2,29.92,NW,326,2.5,6.2,96,0.00,,BKN017,0.00,VWS V14.01,2013-04-24 15:41:00,
2013-04-24 11:47:00,57.1,56.0,29.92,NNE,28,6.7,6.9,96,0.00,,BKN017,0.00,VWS V14.01,2013-04-24 15:47:00,
2013-04-24 11:53:00,56.9,55.2,29.92,NE,39,2.5,7.5,94,0.00,,BKN017,0.00,VWS V14.01,2013-04-24 15:53:00,
2013-04-24 11:59:00,57.0,55.6,29.92,NE,35,4.6,6.4,95,0.00,,BKN017,0.00,VWS V14.01,2013-04-24 15:59:00,
2013-04-24 12:05:00,57.0,55.6,29.92,NW,315,2.5,7.6,95,0.00,,BKN021,0.00,VWS V14.01,2013-04-24 16:05:00,
2013-04-24 12:11:00,58.1,56.1,29.92,NW,309,3.6,3.6,93,0.00,,BKN021,0.00,VWS V14.01,2013-04-24 16:11:00,
2013-04-24 12:17:00,58.9,56.9,29.92,WNW,301,6.4,10.0,93,0.00,,BKN021,0.00,VWS V14.01,2013-04-24 16:17:00,
2013-04-24 12:23:00,59.7,56.3,29.93,NNE,32,4.1,5.5,88,0.00,,BKN021,0.00,VWS V14.01,2013-04-24 16:23:00,
2013-04-24 12:29:00,60.1,56.5,29.92,NW,321,6.5,8.1,88,0.00,,BKN021,0.00,VWS V14.01,2013-04-24 16:29:00,
2013-04-24 12:35:00,62.1,56.3,29.92,SW,224,4.6,7.3,81,0.00,,BKN021,0.00,VWS V14.01,2013-04-24 16:35:00,
2013-04-24 12:41:00,63.0,55.6,29.92,West,278,2.5,8.3,77,0.00,,BKN021,0.00,VWS V14.01,2013-04-24 16:41:00,
2013-04-24 12:47:00,64.6,56.1,29.92,WSW,238,6.2,8.4,74,0.00,,BKN021,0.00,VWS V14.01,2013-04-24 16:47:00,
2013-04-24 12:53:00,63.1,55.2,29.92,WSW,239,9.0,10.3,76,0.00,,BKN021,0.00,VWS V14.01,2013-04-24 16:53:00,
2013-04-24 12:59:00,61.5,55.6,29.91,WSW,255,9.1,12.3,81,0.00,,BKN021,0.00,VWS V14.01,2013-04-24 16:59:00,
2013-04-24 13:05:00,62.5,56.3,29.91,WSW,249,6.8,7.2,80,0.00,,SCT200,0.00,VWS V14.01,2013-04-24 17:05:00,
2013-04-24 13:11:00,63.2,56.3,29.91,WNW,285,5.7,10.5,78,0.00,,SCT200,0.00,VWS V14.01,2013-04-24 17:11:00,
2013-04-24 13:17:00,66.6,56.7,29.91,West,273,6.6,9.1,70,0.00,,SCT200,0.00,VWS V14.01,2013-04-24 17:17:00,
2013-04-24 13:23:00,67.4,52.4,29.90,North,359,5.7,7.0,58,0.00,,SCT200,0.00,VWS V14.01,2013-04-24 17:23:00,
2013-04-24 13:29:00,69.0,53.1,29.90,SW,236,5.5,9.6,57,0.00,,SCT200,0.00,VWS V14.01,2013-04-24 17:29:00,
2013-04-24 13:35:00,66.8,55.6,29.90,WSW,253,6.8,6.8,67,0.00,,SCT200,0.00,VWS V14.01,2013-04-24 17:35:00,
2013-04-24 13:41:00,65.7,54.5,29.90,NW,311,4.6,6.6,67,0.00,,SCT200,0.00,VWS V14.01,2013-04-24 17:41:00,
2013-04-24 13:47:00,70.3,53.4,29.90,SW,221,4.2,6.4,55,0.00,,SCT200,0.00,VWS V14.01,2013-04-24 17:47:00,
2013-04-24 13:53:00,71.6,52.8,29.89,WSW,255,7.8,8.3,52,0.00,,SCT200,0.00,VWS V14.01,2013-04-24 17:53:00,
2013-04-24 13:59:00,72.9,53.5,29.89,WSW,245,7.8,8.7,51,0.00,,SCT200,0.00,VWS V14.01,2013-04-24 17:59:00,
2013-04-24 14:05:00,72.0,53.4,29.89,South,172,5.1,7.4,52,0.00,,SCT200,0.00,VWS V14.01,2013-04-24 18:05:00,
2013-04-24 14:11:00,72.4,52.1,29.88,WSW,238,7.1,8.3,49,0.00,,SCT200,0.00,VWS V14.01,2013-04-24 18:11:00,
2013-04-24 14:17:00,75.2,50.9,29.88,West,263,6.5,6.5,43,0.00,,SCT200,0.00,VWS V14.01,2013-04-24 18:17:00,
2013-04-24 14:23:00,75.0,50.0,29.88,WSW,253,8.7,13.0,42,0.00,,SCT200,0.00,VWS V14.01,2013-04-24 18:23:00,
2013-04-24 14:29:00,71.6,54.5,29.87,NE,41,4.4,4.9,55,0.00,,SCT200,0.00,VWS V14.01,2013-04-24 18:29:00,
2013-04-24 14:35:00,76.1,50.8,29.87,WSW,248,4.8,8.2,41,0.00,,SCT200,0.00,VWS V14.01,2013-04-24 18:35:00,
2013-04-24 14:41:00,72.8,50.2,29.87,WNW,297,6.2,8.3,45,0.00,,SCT200,0.00,VWS V14.01,2013-04-24 18:41:00,
2013-04-24 14:47:00,76.2,49.7,29.86,NW,307,6.1,6.9,39,0.00,,SCT200,0.00,VWS V14.01,2013-04-24 18:47:00,
2013-04-24 14:53:00,72.5,49.1,29.86,ESE,122,5.2,9.0,44,0.00,,SCT200,0.00,VWS V14.01,2013-04-24 18:53:00,
2013-04-24 14:59:00,72.6,51.7,29.86,SW,226,5.5,8.2,48,0.00,,SCT200,0.00,VWS V14.01,2013-04-24 18:59:00,
2013-04-24 15:05:00,73.8,50.1,29.85,WSW,239,13.4,13.4,43,0.00,,SCT250,0.00,VWS V14.01,2013-04-24 19:05:00,
2013-04-24 15:11:00,73.0,52.2,29.86,South,176,7.5,8.0,48,0.00,,SCT250,0.00,VWS V14.01,2013-04-24 19:11:00,
2013-04-24 15:17:00,67.1,53.6,29.86,SSW,193,9.1,12.5,62,0.00,,SCT250,0.00,VWS V14.01,2013-04-24 19:17:00,
2013-04-24 15:23:00,62.8,54.9,29.86,South,181,8.8,17.7,75,0.00,,SCT250,0.00,VWS V14.01,2013-04-24 19:23:00,
2013-04-24 15:29:00,64.7,56.3,29.85,SW,233,7.9,11.7,74,0.00,,SCT250,0.00,VWS V14.01,2013-04-24 19:29:00,
2013-04-24 15:35:00,68.7,52.9,29.85,SSW,195,8.3,11.2,57,0.00,,SCT250,0.00,VWS V14.01,2013-04-24 19:35:00,
2013-04-24 15:41:00,70.7,53.6,29.85,South,176,11.4,13.2,55,0.00,,SCT250,0.00,VWS V14.01,2013-04-24 19:41:00,
2013-04-24 15:47:00,71.4,51.7,29.85,West,262,6.7,9.0,50,0.00,,SCT250,0.00,VWS V14.01,2013-04-24 19:47:00,
2013-04-24 15:53:00,71.5,51.0,29.85,WSW,238,4.3,12.1,48,0.00,,SCT250,0.00,VWS V14.01,2013-04-24 19:53:00,
2013-04-24 15:59:00,71.8,50.6,29.85,West,264,7.6,9.8,47,0.00,,SCT250,0.00,VWS V14.01,2013-04-24 19:59:00,
2013-04-24 16:05:00,70.6,50.3,29.85,WSW,248,7.6,12.8,49,0.00,,FEW250,0.00,VWS V14.01,2013-04-24 20:05:00,
2013-04-24 16:11:00,72.9,48.7,29.85,SSW,204,4.0,11.6,42,0.00,,FEW250,0.00,VWS V14.01,2013-04-24 20:11:00,
2013-04-24 16:17:00,69.8,49.0,29.85,WNW,284,10.8,14.3,48,0.00,,FEW250,0.00,VWS V14.01,2013-04-24 20:17:00,
2013-04-24 16:23:00,68.6,48.8,29.86,WSW,242,6.8,15.7,49,0.00,,FEW250,0.00,VWS V14.01,2013-04-24 20:23:00,
2013-04-24 16:29:00,68.0,49.0,29.86,West,267,9.0,14.1,51,0.00,,FEW250,0.00,VWS V14.01,2013-04-24 20:29:00,
2013-04-24 16:35:00,69.1,47.9,29.86,WSW,246,11.9,14.4,47,0.00,,FEW250,0.00,VWS V14.01,2013-04-24 20:35:00,
2013-04-24 16:41:00,67.9,47.5,29.86,WSW,240,11.1,14.9,48,0.00,,FEW250,0.00,VWS V14.01,2013-04-24 20:41:00,
2013-04-24 16:47:00,67.8,47.0,29.86,WNW,288,7.6,15.2,47,0.00,,FEW250,0.00,VWS V14.01,2013-04-24 20:47:00,
2013-04-24 16:53:00,69.1,46.0,29.86,West,260,9.1,13.9,44,0.00,,FEW250,0.00,VWS V14.01,2013-04-24 20:53:00,
2013-04-24 16:59:00,69.3,45.5,29.86,West,264,9.1,17.2,42,0.00,,FEW250,0.00,VWS V14.01,2013-04-24 20:59:00,
2013-04-24 17:05:00,70.1,45.7,29.85,WSW,252,9.9,14.9,42,0.00,,BKN250,0.00,VWS V14.01,2013-04-24 21:05:00,
2013-04-24 17:11:00,74.1,44.8,29.85,West,262,9.0,11.8,35,0.00,,BKN250,0.00,VWS V14.01,2013-04-24 21:11:00,
2013-04-24 17:17:00,70.9,47.1,29.85,WSW,243,6.1,14.6,43,0.00,,BKN250,0.00,VWS V14.01,2013-04-24 21:17:00,
2013-04-24 17:23:00,71.7,46.1,29.86,SW,231,9.5,11.7,40,0.00,,BKN250,0.00,VWS V14.01,2013-04-24 21:23:00,
2013-04-24 17:29:00,70.3,47.1,29.85,SW,236,5.1,14.1,44,0.00,,BKN250,0.00,VWS V14.01,2013-04-24 21:29:00,
2013-04-24 17:35:00,71.5,46.0,29.85,SW,217,5.2,13.9,40,0.00,,BKN250,0.00,VWS V14.01,2013-04-24 21:35:00,
2013-04-24 17:41:00,70.6,45.1,29.85,SW,221,5.9,11.9,40,0.00,,BKN250,0.00,VWS V14.01,2013-04-24 21:41:00,
2013-04-24 17:47:00,69.6,45.7,29.85,West,264,8.5,9.4,42,0.00,,BKN250,0.00,VWS V14.01,2013-04-24 21:47:00,
2013-04-24 17:53:00,69.0,45.1,29.85,NW,305,8.0,13.5,42,0.00,,BKN250,0.00,VWS V14.01,2013-04-24 21:53:00,
2013-04-24 17:59:00,68.4,46.1,29.85,SSW,193,3.6,8.5,45,0.00,,BKN250,0.00,VWS V14.01,2013-04-24 21:59:00,
2013-04-24 18:05:00,70.4,45.3,29.85,WSW,243,5.6,12.6,41,0.00,,SCT250,0.00,VWS V14.01,2013-04-24 22:05:00,
2013-04-24 18:11:00,64.4,45.8,29.85,SW,231,9.9,11.7,51,0.00,,SCT250,0.00,VWS V14.01,2013-04-24 22:11:00,
2013-04-24 18:17:00,62.8,46.7,29.85,SW,224,4.8,14.1,56,0.00,,SCT250,0.00,VWS V14.01,2013-04-24 22:17:00,
2013-04-24 18:23:00,61.9,46.4,29.85,West,269,8.7,15.1,57,0.00,,SCT250,0.00,VWS V14.01,2013-04-24 22:23:00,
2013-04-24 18:29:00,61.3,46.4,29.85,WSW,240,11.1,14.1,58,0.00,,SCT250,0.00,VWS V14.01,2013-04-24 22:29:00,
2013-04-24 18:35:00,60.6,47.5,29.85,West,267,6.7,8.7,62,0.00,,SCT250,0.00,VWS V14.01,2013-04-24 22:35:00,
2013-04-24 18:41:00,59.7,47.2,29.86,West,270,11.3,16.1,63,0.00,,SCT250,0.00,VWS V14.01,2013-04-24 22:41:00,
2013-04-24 18:47:00,59.4,48.0,29.86,WSW,239,9.3,11.7,66,0.00,,SCT250,0.00,VWS V14.01,2013-04-24 22:47:00,
2013-04-24 18:53:00,59.1,48.5,29.86,WNW,294,7.7,11.2,68,0.00,,SCT250,0.00,VWS V14.01,2013-04-24 22:53:00,
2013-04-24 18:59:00,58.6,48.9,29.87,WSW,239,12.3,16.5,70,0.00,,SCT250,0.00,VWS V14.01,2013-04-24 22:59:00,
2013-04-24 19:05:00,58.0,48.5,29.86,SW,228,12.6,14.5,70,0.00,,FEW250,0.00,VWS V14.01,2013-04-24 23:05:00,
2013-04-24 19:11:00,57.3,49.4,29.87,SW,235,10.9,13.2,75,0.00,,FEW250,0.00,VWS V14.01,2013-04-24 23:11:00,
2013-04-24 19:17:00,56.9,49.9,29.86,WSW,248,7.8,13.9,77,0.00,,FEW250,0.00,VWS V14.01,2013-04-24 23:17:00,
2013-04-24 19:23:00,56.0,48.1,29.87,West,263,7.8,17.4,75,0.00,,FEW250,0.00,VWS V14.01,2013-04-24 23:23:00,
2013-04-24 19:29:00,55.3,49.9,29.87,SW,215,9.6,11.4,82,0.00,,FEW250,0.00,VWS V14.01,2013-04-24 23:29:00,
2013-04-24 19:35:00,55.0,50.1,29.87,WSW,245,8.5,17.2,84,0.00,,FEW250,0.00,VWS V14.01,2013-04-24 23:35:00,
2013-04-24 19:41:00,54.5,50.4,29.87,WSW,245,15.5,16.0,86,0.00,,FEW250,0.00,VWS V14.01,2013-04-24 23:41:00,
2013-04-24 19:47:00,54.2,50.4,29.88,WSW,240,7.2,12.1,87,0.00,,FEW250,0.00,VWS V14.01,2013-04-24 23:47:00,
2013-04-24 19:53:00,53.8,50.6,29.88,West,259,7.0,15.3,89,0.00,,FEW250,0.00,VWS V14.01,2013-04-24 23:53:00,
2013-04-24 19:59:00,53.6,50.8,29.88,SW,233,9.6,16.2,90,0.00,,FEW250,0.00,VWS V14.01,2013-04-24 23:59:00,
2013-04-24 20:05:00,53.3,50.9,29.88,West,269,9.5,16.9,91,0.00,,FEW250,0.00,VWS V14.01,2013-04-25 00:05:00,
2013-04-24 20:11:00,53.1,51.2,29.88,SW,228,8.0,13.4,93,0.00,,FEW250,0.00,VWS V14.01,2013-04-25 00:11:00,
2013-04-24 20:17:00,52.7,51.2,29.88,WSW,242,6.6,16.5,95,0.00,,FEW250,0.00,VWS V14.01,2013-04-25 00:17:00,
2013-04-24 20:23:00,52.6,51.4,29.88,West,260,9.6,21.3,96,0.00,,FEW250,0.00,VWS V14.01,2013-04-25 00:23:00,
2013-04-24 20:29:00,52.4,51.4,29.88,SSW,207,16.3,16.3,96,0.00,,FEW250,0.00,VWS V14.01,2013-04-25 00:29:00,
2013-04-24 20:35:00,52.1,51.3,29.88,WSW,246,7.3,11.9,97,0.00,,FEW250,0.00,VWS V14.01,2013-04-25 00:35:00,
2013-04-24 20:41:00,51.8,51.2,29.89,SW,218,10.8,13.6,98,0.00,,FEW250,0.00,VWS V14.01,2013-04-25 00:41:00,
2013-04-24 20:47:00,51.7,51.3,29.89,WSW,252,10.6,11.2,99,0.00,,FEW250,0.00,VWS V14.01,2013-04-25 00:47:00,
2013-04-24 20:53:00,51.2,51.0,29.89,SW,232,9.3,12.4,99,0.00,,FEW250,0.00,VWS V14.01,2013-04-25 00:53:00,
2013-04-24 20:59:00,51.1,51.0,29.89,West,274,9.1,12.0,100,0.00,,FEW250,0.00,VWS V14.01,2013-04-25 00:59:00,
2013-04-24 21:05:00,50.8,50.8,29.90,SW,225,11.7,11.7,100,0.00,,FEW250,0.00,VWS V14.01,2013-04-25 01:05:00,
2013-04-24 21:11:00,50.4,50.4,29.90,SW,226,6.7,11.9,100,0.00,,FEW250,0.00,VWS V14.01,2013-04-25 01:11:00,
2013-04-24 21:17:00,50.4,50.4,29.90,WSW,256,10.4,13.1,100,0.00,,FEW250,0.00,VWS V14.01,2013-04-25 01:17:00,
2013-04-24 21:23:00,50.3,50.3,29.90,WSW,245,7.0,11.9,100,0.00,,FEW250,0.00,VWS V14.01,2013-04-25 01:23:00,
2013-04-24 21:29:00,50.0,50.0,29.90,West,260,4.6,7.7,100,0.00,,FEW250,0.00,VWS V14.01,2013-04-25 01:29:00,
2013-04-24 21:35:00,49.9,49.9,29.90,West,264,5.1,12.1,100,0.00,,FEW250,0.00,VWS V14.01,2013-04-25 01:35:00,
2013-04-24 21:41:00,49.8,49.8,29.91,WSW,248,11.6,15.7,100,0.00,,FEW250,0.00,VWS V14.01,2013-04-25 01:41:00,
2013-04-24 21:47:00,49.6,49.6,29.91,WSW,240,8.6,12.1,100,0.00,,FEW250,0.00,VWS V14.01,2013-04-25 01:47:00,
2013-04-24 21:53:00,49.4,49.4,29.91,WSW,248,10.1,14.9,100,0.00,,FEW250,0.00,VWS V14.01,2013-04-25 01:53:00,
2013-04-24 21:59:00,49.4,49.4,29.91,West,271,10.4,17.8,100,0.00,,FEW250,0.00,VWS V14.01,2013-04-25 01:59:00,
2013-04-24 22:05:00,49.4,49.4,29.92,West,262,6.7,16.7,100,0.00,,FEW250,0.00,VWS V14.01,2013-04-25 02:05:00,
2013-04-24 22:11:00,49.5,49.5,29.92,WSW,249,14.9,20.1,100,0.00,,FEW250,0.00,VWS V14.01,2013-04-25 02:11:00,
2013-04-24 22:17:00,49.5,49.5,29.92,WSW,256,13.6,16.2,100,0.00,,FEW250,0.00,VWS V14.01,2013-04-25 02:17:00,
2013-04-24 22:23:00,49.5,49.5,29.92,West,260,13.4,21.9,100,0.00,,FEW250,0.00,VWS V14.01,2013-04-25 02:23:00,
2013-04-24 22:29:00,49.5,49.5,29.92,West,260,8.9,15.1,100,0.00,,FEW250,0.00,VWS V14.01,2013-04-25 02:29:00,
2013-04-24 22:35:00,49.5,49.5,29.92,SW,235,15.1,29.7,100,0.00,,FEW250,0.00,VWS V14.01,2013-04-25 02:35:00,
2013-04-24 22:41:00,49.7,49.7,29.92,WSW,255,8.3,18.2,100,0.00,,FEW250,0.00,VWS V14.01,2013-04-25 02:41:00,
2013-04-24 22:47:00,49.5,49.5,29.92,WNW,283,8.2,18.4,100,0.00,,FEW250,0.00,VWS V14.01,2013-04-25 02:47:00,
2013-04-24 22:53:00,49.4,49.4,29.91,West,263,13.0,18.7,100,0.00,,FEW250,0.00,VWS V14.01,2013-04-25 02:53:00,
2013-04-24 22:59:00,49.5,49.5,29.91,West,281,4.9,14.1,100,0.00,,FEW250,0.00,VWS V14.01,2013-04-25 02:59:00,
2013-04-24 23:05:00,49.4,49.4,29.90,WSW,257,12.1,15.7,100,0.00,,FEW250,0.00,VWS V14.01,2013-04-25 03:05:00,
2013-04-24 23:11:00,49.3,49.3,29.90,WSW,238,8.5,13.4,100,0.00,,FEW250,0.00,VWS V14.01,2013-04-25 03:11:00,
2013-04-24 23:17:00,49.2,49.2,29.90,West,269,9.3,18.8,100,0.00,,FEW250,0.00,VWS V14.01,2013-04-25 03:17:00,
2013-04-24 23:23:00,49.2,49.2,29.90,WNW,298,11.0,16.0,100,0.00,,FEW250,0.00,VWS V14.01,2013-04-25 03:23:00,
2013-04-24 23:29:00,49.6,49.6,29.90,SW,228,15.1,17.3,100,0.00,,FEW250,0.00,VWS V14.01,2013-04-25 03:29:00,
2013-04-24 23:35:00,50.0,50.0,29.91,SW,214,7.7,20.9,100,0.00,,FEW250,0.00,VWS V14.01,2013-04-25 03:35:00,
2013-04-24 23:41:00,50.3,50.3,29.91,WSW,249,11.4,17.1,100,0.00,,FEW250,0.00,VWS V14.01,2013-04-25 03:41:00,
2013-04-24 23:47:00,50.4,50.4,29.91,West,269,18.8,18.8,100,0.00,,FEW250,0.00,VWS V14.01,2013-04-25 03:47:00,
2013-04-24 23:53:00,50.6,50.6,29.90,WNW,287,9.0,12.3,100,0.00,,FEW250,0.00,VWS V14.01,2013-04-25 03:53:00,